Temperature
6 6 6 6 5 5 5 5 5 4 4 4 4 4 4 4 4 4 4 4 4 4 4 4 4 4 4 4 4 4 3 3 3 3 3 3 3 3
5 5 5 5 5 5 5 5 4 4 4 3 4 4 4 4 4 4 4 4 4 4 4 4 3 3 3 3 3 3 3 3 3 2 2 2 2 2
4 4 4 4 4 4 4 4 4 4 3 3 3 3 3 3 3 3 3 3 3 3 3 3 3 3 3 3 3 2 2 2 2 2 2 2 1 2
4 4 4 4 3 3 3 3 3 3 3 3 3 3 3 3 3 3 3 3 3 3 3 3 3 2 2 2 2 2 2 2 2 1 1 1 1 1
3 3 3 3 3 3 3 3 3 3 2 2 2 2 2 2 2 2 2 2 2 2 2 2 2 2 2 1 1 1 1 1 1 1 1 1 1 0
3 3 3 3 3 2 2 2 2 2 2 1 1 1 1 1 1 1 1 1 1 1 1 1 1 1 1 1 1 1 1 0 0 0 0 0 0 -0
2 2 2 2 2 2 2 2 2 1 1 1 1 1 1 0 0 0 0 0 0 0 0 0 0 0 0 0 0 0 -0 -0 -0 -0 -0 -0 -1 -1
2 2 2 1 1 1 1 1 1 1 1 0 0 0 -0 -0 -0 -0 -1 -1 -1 -1 -1 -1 -1 -1 -1 -1 -1 -1 -1 -1 -1 -1 -1 -1 -1 -1
1 1 1 1 1 1 1 1 1 0 0 0 -0 -0 -1 -1 -1 -1 -1 -1 -2 -2 -2 -1 -1 -1 -1 -1 -1 -1 -1 -1 -1 -1 -1 -2 -2 -2
1 0 0 0 0 -0 -0 -0 -0 -0 -0 -0 -1 -1 -1 -1 -1 -1 -2 -2 -2 -2 -2 -2 -2 -2 -2 -2 -2 -2 -2 -2 -2 -2 -2 -2 -2 -2
0 -0 -0 -0 -1 -1 -1 -1 -1 -1 -1 -1 -1 -1 -2 -2 -2 -2 -2 -3 -3 -3 -3 -3 -3 -3 -2 -2 -2 -2 -2 -2 -3 -3 -3 -3 -3 -2
-1 -1 -1 -1 -1 -1 -1 -1 -2 -2 -2 -2 -2 -2 -2 -2 -2 -3 -3 -3 -4 -4 -4 -4 -4 -4 -4 -3 -3 -3 -3 -3 -3 -3 -3 -3 -3 -3
-2 -2 -2 -2 -2 -2 -2 -2 -2 -2 -2 -3 -3 -3 -3 -3 -3 -3 -4 -4 -4 -4 -4 -5 -5 -5 -5 -5 -4 -4 -4 -4 -4 -3 -4 -4 -4 -4
-2 -2 -2 -2 -2 -2 -3 -3 -3 -3 -3 -3 -3 -4 -4 -4 -4 -4 -4 -4 -4 -5 -5 -5 -5 -5 -6 -6 -5 -5 -4 -4 -4 -4 -4 -4 -4 -4
-2 -3 -3 -3 -3 -3 -3 -3 -3 -4 -4 -4 -4 -4 -4 -4 -4 -4 -5 -5 -5 -5 -5 -5 -6 -6 -6 -6 -6 -5 -5 -5 -5 -5 -5 -5 -4 -4
-3 -3 -3 -3 -4 -4 -4 -4 -4 -4 -4 -4 -4 -4 -5 -5 -5 -5 -5 -5 -5 -5 -5 -6 -6 -6 -6 -6 -6 -6 -6 -6 -6 -5 -5 -5 -5 -5
-4 -4 -4 -4 -4 -4 -4 -4 -4 -5 -5 -5 -5 -5 -5 -5 -5 -6 -6 -6 -6 -6 -6 -6 -6 -6 -6 -6 -6 -6 -6 -6 -6 -6 -6 -6 -5 -5
-4 -4 -4 -4 -4 -4 -5 -5 -5 -5 -5 -5 -5 -5 -6 -6 -6 -6 -6 -7 -7 -7 -7 -7 -7 -7 -7 -7 -6 -7 -7 -6 -6 -6 -7 -7 -6 -5
-5 -5 -5 -5 -5 -5 -5 -5 -5 -5 -5 -6 -6 -6 -6 -6 -6 -6 -7 -7 -7 -7 -7 -7 -7 -7 -8 -8 -7 -7 -7 -7 -7 -7 -7 -7 -6 -6
-5 -5 -5 -5 -5 -5 -5 -5 -5 -6 -6 -6 -6 -6 -6 -7 -7 -7 -7 -7 -7 -7 -7 -7 -7 -8 -8 -8 -8 -7 -7 -7 -7 -7 -7 -7 -7 -6
-5 -5 -5 -5 -5 -5 -6 -6 -6 -6 -6 -6 -6 -6 -7 -7 -7 -7 -7 -7 -8 -8 -8 -8 -7 -8 -8 -8 -8 -7 -7 -7 -7 -7 -7 -7 -7 -7
-6 -6 -6 -6 -6 -6 -6 -6 -6 -6 -6 -7 -7 -7 -7 -7 -7 -8 -8 -8 -8 -8 -8 -8 -8 -8 -8 -8 -8 -8 -7 -7 -7 -7 -7 -7 -8 -8
-6 -6 -6 -6 -6 -6 -6 -6 -7 -7 -7 -7 -7 -7 -7 -8 -8 -8 -8 -8 -8 -8 -8 -8 -8 -8 -8 -8 -8 -8 -8 -8 -8 -8 -7 -7 -8 -8
Wind_Speed
4 4 4 3 3 3 4 4 4 4 5 4 3 3 3 4 4 5 5 4 5 6 6 6 6 6 6 6 7 8 9 9 9 9 10 11 12 12
3 4 4 3 3 3 4 4 4 5 5 4 3 3 4 3 4 5 5 5 5 5 5 5 6 6 7 7 7 8 8 9 9 10 11 12 12 12
3 4 4 4 3 3 3 3 4 4 5 4 3 3 4 4 4 4 4 4 4 4 5 5 6 6 7 7 8 8 8 8 9 10 11 12 12 12
5 4 4 4 4 4 3 4 4 4 4 5 4 3 4 4 4 4 4 4 4 4 5 5 6 6 6 6 7 7 7 7 8 9 10 11 12 13
5 6 5 5 5 4 4 4 4 3 4 4 4 3 3 3 3 4 4 4 4 3 4 5 6 6 7 7 7 7 8 8 8 9 10 11 12 12
4 5 5 6 6 5 4 5 4 4 4 4 3 3 3 3 3 3 3 3 3 3 4 5 5 6 6 7 7 7 8 8 9 9 10 11 11 12
3 3 4 4 5 5 4 5 5 4 4 4 4 3 3 2 3 3 3 3 4 3 3 4 4 4 5 6 7 8 8 9 9 10 11 11 12 12
3 2 2 4 4 5 6 6 6 6 5 5 4 4 4 3 3 3 3 3 4 2 4 4 4 4 5 5 7 8 9 10 11 11 11 11 12 12
3 3 2 2 3 3 4 5 5 6 5 4 5 5 4 4 3 4 4 4 4 4 4 5 4 5 5 6 8 8 9 10 10 11 11 11 12 12
3 3 2 2 2 3 3 3 4 4 4 4 4 4 3 3 4 4 4 4 4 3 3 4 4 5 5 6 7 7 8 8 9 10 11 11 11 12
3 3 3 3 3 3 4 4 4 4 3 4 4 3 3 3 3 2 2 3 4 4 2 3 4 5 5 5 5 6 7 8 10 11 11 11 11 12
2 3 4 4 4 4 4 4 4 4 3 3 3 3 3 3 4 4 3 4 3 3 2 2 3 3 3 3 4 5 6 8 10 11 11 11 11 9
2 2 3 4 4 4 4 3 4 3 3 3 3 3 2 2 3 3 4 4 4 4 3 2 3 3 3 4 4 5 5 6 7 8 9 10 11 10
3 3 3 4 4 4 4 3 3 3 3 3 3 3 3 3 3 3 4 5 5 6 6 5 4 4 5 6 5 4 5 6 6 6 7 9 10 11
3 3 4 4 3 3 4 4 3 2 3 3 4 3 3 3 3 3 4 4 5 5 6 6 6 5 6 6 6 6 6 5 6 5 6 6 6 7
3 3 3 3 3 3 3 3 2 2 3 3 3 3 2 3 3 3 3 3 3 4 4 6 6 6 6 7 7 7 6 5 5 6 6 7 7 7
2 2 2 2 2 3 3 2 2 3 3 3 3 3 3 3 3 3 3 3 4 5 4 3 4 5 6 7 7 7 6 6 6 6 6 7 7 7
4 3 3 3 4 4 4 3 3 4 3 3 3 4 4 4 4 3 4 4 5 5 5 4 3 4 4 5 7 8 7 6 6 6 6 7 8 7
4 4 4 4 4 4 4 4 4 4 3 4 4 4 4 4 4 4 4 4 5 5 5 4 4 4 5 6 4 6 6 6 6 6 6 6 8 7
4 4 4 4 4 4 4 4 4 3 3 4 4 4 4 4 5 5 5 5 5 5 5 5 5 5 6 6 5 5 7 6 6 6 6 6 7 8
4 4 4 4 4 4 4 4 4 4 4 4 4 4 4 4 5 5 5 6 6 6 6 6 5 6 5 4 5 6 5 7 8 6 6 6 6 6
4 4 4 4 4 4 4 4 4 4 4 5 5 5 4 5 5 6 5 5 5 6 6 5 5 4 4 6 7 7 6 6 7 9 9 9 6 5
4 4 4 4 4 4 4 4 5 5 5 5 5 5 5 5 5 5 5 5 5 6 6 5 5 4 5 5 6 6 7 7 5 5 6 8 10 13
Wind_Direction
217 219 223 229 229 232 229 229 233 244 249 241 236 243 267 276 281 265 266 263 258 259 256 248 253 259 264 268 276 282 287 290 291 292 293 292 293 294
215 217 225 234 233 232 230 231 236 240 250 250 250 263 267 272 279 267 266 263 250 252 257 258 259 261 265 269 275 279 283 285 286 288 288 290 293 294
218 217 220 228 233 235 233 233 235 236 244 260 263 271 266 269 279 277 277 267 258 248 254 264 269 269 271 274 276 278 279 282 286 288 290 291 292 294
220 219 222 220 227 235 233 236 240 240 239 254 268 274 276 275 279 279 285 281 270 258 262 267 271 274 273 274 279 280 282 285 287 289 292 293 293 293
222 221 222 218 223 231 233 233 240 244 239 245 262 273 279 277 279 283 287 293 282 273 280 273 275 277 274 274 276 278 281 284 285 287 289 292 293 294
229 226 223 221 222 228 233 233 232 235 236 240 253 259 269 271 272 286 292 297 291 292 291 285 281 279 276 278 280 284 284 284 285 286 289 292 294 293
234 237 235 230 231 233 235 233 228 230 235 241 250 258 258 262 268 281 284 302 297 289 298 298 294 288 282 277 279 288 290 289 290 289 289 290 289 287
232 241 247 236 231 238 242 240 234 230 232 235 244 248 257 267 268 271 284 293 295 295 298 293 289 286 291 285 287 287 287 290 290 290 289 288 286 285
227 230 238 249 242 243 239 237 237 240 241 240 245 252 257 256 252 259 266 270 280 290 296 285 287 284 292 280 279 283 287 289 288 288 287 287 287 288
229 227 234 244 237 248 244 240 242 241 241 244 247 257 264 263 254 260 271 277 284 271 273 275 285 290 292 282 273 281 285 289 292 293 293 292 292 292
243 240 240 244 234 245 244 237 244 246 239 240 254 265 272 264 255 245 252 263 280 280 265 267 287 300 291 275 278 280 284 289 294 295 294 293 295 295
243 244 239 245 244 248 246 233 236 249 242 237 240 242 243 237 237 236 238 250 272 275 249 264 285 308 294 277 287 291 288 287 292 293 293 294 297 296
239 247 245 245 254 254 259 255 245 244 247 242 244 249 252 252 254 258 254 246 252 261 249 266 280 289 279 290 293 289 289 294 293 291 289 293 295 294
243 246 243 247 260 271 268 256 249 250 241 239 241 251 256 263 270 275 271 267 265 265 256 252 260 266 279 285 284 288 291 290 289 288 292 294 290 288
253 251 251 249 262 268 258 249 251 251 239 242 243 251 258 266 274 274 280 279 275 265 255 253 254 258 264 271 277 283 292 289 280 283 291 291 290 290
248 244 244 248 253 253 250 243 244 249 255 253 254 255 261 257 256 263 273 275 279 280 270 262 258 257 266 270 272 275 276 276 280 285 289 290 287 282
220 227 227 231 239 244 247 243 240 242 254 255 252 249 249 252 258 261 263 265 269 275 283 282 276 268 265 268 269 268 271 276 277 283 287 286 284 279
215 226 230 233 237 242 244 246 246 246 249 252 253 250 248 251 258 259 256 259 266 272 276 279 282 287 277 266 249 262 269 274 282 282 281 281 284 284
223 233 238 242 243 243 244 246 249 249 248 247 249 252 248 246 249 254 257 261 265 269 269 266 262 266 276 284 269 243 263 277 281 281 279 278 281 287
233 239 244 247 249 249 247 248 250 248 244 245 246 248 250 246 245 248 252 260 266 272 272 263 256 258 264 276 282 280 264 266 272 276 283 286 284 284
239 243 246 248 248 252 253 250 247 246 247 245 247 246 245 249 250 251 255 259 264 267 267 267 268 272 274 272 271 275 278 270 268 272 281 286 291 291
243 244 248 251 250 249 249 248 247 246 246 246 247 245 244 245 250 252 253 256 260 265 271 275 277 271 262 260 267 278 286 292 288 278 270 268 272 276
246 246 248 249 249 249 248 245 246 248 247 246 246 246 244 245 248 250 252 254 258 265 270 277 280 276 273 269 271 277 282 291 294 293 289 288 278 275
Height
1491 1492 1493 1494 1495 1496 1497 1498 1499 1498 1498 1497 1497 1498 1498 1498 1497 1497 1497 1496 1496 1496 1496 1495 1495 1495 1494 1494 1494 1493 1493 1492 1491 1491 1490 1489 1488 1488
1487 1487 1488 1489 1490 1491 1492 1493 1494 1494 1494 1493 1493 1494 1494 1493 1493 1493 1492 1492 1492 1491 1491 1491 1491 1490 1490 1489 1489 1489 1488 1487 1487 1486 1485 1484 1484 1483
1483 1483 1484 1485 1486 1487 1488 1488 1489 1490 1489 1489 1489 1489 1489 1489 1489 1488 1488 1487 1487 1487 1487 1486 1486 1485 1485 1485 1484 1483 1483 1482 1482 1481 1480 1479 1478 1478
1479 1480 1480 1481 1482 1482 1483 1484 1484 1485 1485 1485 1485 1485 1484 1484 1484 1484 1483 1483 1482 1482 1482 1481 1481 1481 1480 1480 1479 1478 1478 1477 1477 1476 1475 1474 1473 1472
1475 1476 1476 1477 1477 1478 1479 1479 1480 1480 1480 1480 1480 1480 1480 1480 1479 1479 1478 1478 1478 1477 1477 1477 1476 1476 1475 1475 1474 1473 1473 1472 1471 1471 1470 1469 1468 1467
1471 1472 1472 1473 1473 1473 1474 1475 1475 1475 1475 1476 1475 1475 1476 1475 1475 1474 1474 1474 1473 1473 1472 1472 1471 1471 1470 1469 1469 1468 1468 1467 1466 1465 1464 1463 1462 1461
1467 1468 1468 1468 1469 1469 1470 1470 1470 1471 1471 1471 1471 1471 1471 1471 1471 1470 1470 1470 1469 1469 1468 1467 1467 1466 1465 1464 1464 1463 1463 1462 1461 1460 1459 1457 1456 1455
1463 1463 1464 1464 1465 1465 1465 1466 1466 1466 1466 1467 1467 1467 1467 1467 1467 1466 1466 1465 1465 1465 1464 1463 1462 1461 1460 1460 1459 1458 1457 1457 1456 1455 1453 1452 1451 1450
1459 1460 1460 1460 1460 1460 1461 1461 1461 1462 1463 1463 1462 1462 1463 1463 1463 1462 1462 1461 1460 1460 1460 1458 1458 1457 1456 1455 1454 1453 1452 1451 1450 1449 1448 1447 1445 1444
1456 1456 1456 1456 1456 1457 1457 1457 1457 1458 1458 1459 1459 1459 1459 1459 1459 1458 1457 1457 1456 1456 1456 1454 1453 1452 1451 1451 1450 1449 1448 1447 1445 1444 1443 1442 1440 1439
1452 1453 1453 1453 1453 1453 1453 1453 1453 1453 1454 1454 1454 1454 1455 1454 1454 1454 1454 1453 1452 1452 1451 1450 1449 1447 1446 1446 1445 1444 1443 1442 1441 1440 1438 1437 1435 1433
1448 1449 1449 1449 1450 1450 1449 1449 1449 1449 1450 1450 1450 1450 1450 1450 1450 1450 1449 1449 1448 1447 1447 1447 1445 1444 1442 1441 1441 1440 1439 1437 1436 1435 1434 1432 1431 1429
1445 1446 1446 1446 1446 1446 1446 1446 1445 1446 1446 1446 1446 1446 1446 1446 1446 1445 1445 1445 1444 1443 1443 1443 1441 1441 1440 1437 1436 1436 1435 1433 1432 1430 1429 1428 1426 1425
1442 1443 1443 1443 1443 1443 1442 1442 1442 1442 1442 1442 1442 1442 1442 1442 1441 1441 1441 1440 1440 1440 1439 1439 1438 1437 1436 1434 1432 1431 1430 1429 1427 1426 1424 1423 1422 1420
1439 1439 1440 1440 1439 1439 1439 1439 1439 1439 1439 1438 1438 1438 1438 1437 1437 1437 1436 1436 1435 1435 1434 1434 1433 1433 1432 1430 1428 1427 1425 1424 1423 1421 1420 1418 1417 1415
1436 1436 1437 1436 1436 1436 1436 1436 1435 1435 1435 1434 1434 1434 1433 1433 1433 1432 1432 1431 1430 1430 1430 1429 1428 1428 1427 1426 1425 1422 1422 1420 1418 1417 1415 1414 1413 1411
1433 1433 1433 1433 1433 1432 1432 1432 1431 1431 1431 1430 1430 1430 1429 1429 1429 1429 1428 1427 1426 1425 1425 1424 1424 1423 1422 1422 1420 1419 1417 1416 1415 1413 1411 1409 1408 1407
1430 1429 1429 1429 1429 1428 1428 1428 1428 1427 1427 1427 1426 1426 1425 1425 1425 1424 1424 1423 1422 1421 1421 1420 1420 1419 1418 1417 1416 1414 1413 1412 1410 1409 1407 1405 1403 1402
1426 1425 1425 1425 1425 1424 1424 1424 1424 1423 1423 1422 1422 1421 1421 1421 1421 1420 1420 1419 1418 1418 1417 1417 1416 1415 1414 1412 1411 1411 1409 1407 1406 1404 1403 1401 1399 1397
1421 1421 1421 1421 1421 1420 1420 1420 1419 1419 1418 1418 1418 1417 1417 1417 1416 1416 1416 1415 1415 1414 1413 1413 1412 1411 1410 1409 1407 1406 1405 1404 1402 1400 1399 1397 1395 1393
1417 1417 1417 1417 1417 1416 1416 1415 1415 1414 1414 1414 1413 1413 1413 1412 1412 1412 1411 1411 1411 1410 1409 1408 1408 1407 1406 1405 1403 1400 1400 1400 1398 1396 1394 1393 1390 1389
1413 1413 1413 1413 1412 1412 1411 1411 1411 1410 1410 1409 1409 1409 1409 1408 1408 1407 1407 1407 1406 1406 1405 1404 1403 1403 1402 1400 1398 1396 1395 1394 1393 1392 1391 1390 1387 1384
1409 1409 1409 1408 1408 1408 1407 1407 1406 1406 1405 1405 1405 1404 1404 1404 1404 1403 1403 1402 1402 1401 1400 1400 1399 1398 1397 1396 1394 1392 1391 1389 1388 1387 1386 1385 1384 1382